Time,TemperatureF,DewpointF,PressureIn,WindDirection,WindDirectionDegrees,WindSpeedMPH,WindSpeedGustMPH,Humidity,HourlyPrecipIn,Conditions,Clouds,dailyrainin,SoftwareType,DateUTC
2013-01-16 00:02:00,21.0,15.0,30.34,North,354,0.0,0.0,78,0.00,,,0.00,,2013-01-16 06:02:00,
2013-01-16 00:12:00,21.0,15.0,30.34,North,354,0.0,0.0,78,0.00,,,0.00,,2013-01-16 06:12:00,
2013-01-16 00:22:00,21.0,15.0,30.34,North,354,0.0,0.0,78,0.00,,,0.00,,2013-01-16 06:22:00,
2013-01-16 00:32:00,20.0,15.0,30.34,North,354,0.0,0.0,80,0.00,,,0.00,,2013-01-16 06:32:00,
2013-01-16 00:43:00,20.0,15.0,30.34,North,354,0.0,0.0,80,0.00,,,0.00,,2013-01-16 06:43:00,
2013-01-16 00:53:00,20.0,15.0,30.33,North,354,0.0,0.0,80,0.00,,,0.00,,2013-01-16 06:53:00,
2013-01-16 01:02:00,20.0,15.0,30.33,North,354,0.0,0.0,80,0.00,,,0.00,,2013-01-16 07:02:00,
2013-01-16 01:12:00,20.0,15.0,30.33,North,354,0.0,0.0,80,0.00,,,0.00,,2013-01-16 07:12:00,
2013-01-16 01:22:00,19.0,14.0,30.33,North,354,0.0,0.0,81,0.00,,,0.00,,2013-01-16 07:22:00,
2013-01-16 01:32:00,19.0,14.0,30.33,North,354,0.0,0.0,82,0.00,,,0.00,,2013-01-16 07:32:00,
2013-01-16 01:42:00,19.0,14.0,30.33,North,354,0.0,0.0,82,0.00,,,0.00,,2013-01-16 07:42:00,
2013-01-16 01:52:00,18.0,14.0,30.33,North,354,0.0,0.0,83,0.00,,,0.00,,2013-01-16 07:52:00,
2013-01-16 02:02:00,18.0,14.0,30.33,North,354,0.0,0.0,84,0.00,,,0.00,,2013-01-16 08:02:00,
2013-01-16 02:12:00,18.0,14.0,30.33,North,354,0.0,0.0,84,0.00,,,0.00,,2013-01-16 08:12:00,
2013-01-16 02:22:00,18.0,14.0,30.32,North,354,0.0,0.0,84,0.00,,,0.00,,2013-01-16 08:22:00,
2013-01-16 02:32:00,18.0,14.0,30.32,North,354,0.0,0.0,84,0.00,,,0.00,,2013-01-16 08:32:00,
2013-01-16 02:42:00,18.0,14.0,30.32,North,354,0.0,0.0,84,0.00,,,0.00,,2013-01-16 08:42:00,
2013-01-16 02:52:00,18.0,14.0,30.32,North,354,0.0,0.0,84,0.00,,,0.00,,2013-01-16 08:52:00,
2013-01-16 03:02:00,19.0,15.0,30.32,North,354,0.0,0.0,85,0.00,,,0.00,,2013-01-16 09:02:00,
2013-01-16 03:12:00,19.0,15.0,30.32,North,354,0.0,0.0,85,0.00,,,0.00,,2013-01-16 09:12:00,
2013-01-16 03:22:00,19.0,15.0,30.32,North,354,0.0,0.0,83,0.00,,,0.00,,2013-01-16 09:22:00,
2013-01-16 03:32:00,19.0,15.0,30.32,North,354,0.0,0.0,84,0.00,,,0.00,,2013-01-16 09:32:00,
2013-01-16 03:42:00,19.0,15.0,30.32,North,354,0.0,0.0,84,0.00,,,0.00,,2013-01-16 09:42:00,
2013-01-16 03:52:00,18.0,14.0,30.31,North,354,0.0,0.0,84,0.00,,,0.00,,2013-01-16 09:52:00,
2013-01-16 04:02:00,18.0,14.0,30.31,North,354,0.0,0.0,85,0.00,,,0.00,,2013-01-16 10:02:00,
2013-01-16 04:12:00,18.0,14.0,30.31,North,354,0.0,0.0,85,0.00,,,0.00,,2013-01-16 10:12:00,
2013-01-16 04:22:00,17.0,14.0,30.31,North,354,0.0,0.0,86,0.00,,,0.00,,2013-01-16 10:22:00,
2013-01-16 04:32:00,17.0,14.0,30.30,North,354,0.0,0.0,88,0.00,,,0.00,,2013-01-16 10:32:00,
2013-01-16 04:42:00,17.0,14.0,30.30,North,354,0.0,0.0,88,0.00,,,0.00,,2013-01-16 10:42:00,
2013-01-16 04:52:00,17.0,14.0,30.30,North,354,0.0,0.0,88,0.00,,,0.00,,2013-01-16 10:52:00,
2013-01-16 05:02:00,16.0,13.0,30.29,North,354,0.0,0.0,88,0.00,,,0.00,,2013-01-16 11:02:00,
2013-01-16 05:12:00,16.0,13.0,30.29,North,354,0.0,0.0,88,0.00,,,0.00,,2013-01-16 11:12:00,
2013-01-16 05:22:00,16.0,13.0,30.29,North,354,0.0,0.0,88,0.00,,,0.00,,2013-01-16 11:22:00,
2013-01-16 05:32:00,16.0,13.0,30.29,North,354,0.0,0.0,88,0.00,,,0.00,,2013-01-16 11:32:00,
2013-01-16 05:42:00,16.0,13.0,30.29,North,354,0.0,0.0,88,0.00,,,0.00,,2013-01-16 11:42:00,
2013-01-16 05:52:00,15.0,12.0,30.29,North,354,0.0,0.0,89,0.00,,,0.00,,2013-01-16 11:52:00,
2013-01-16 06:03:00,15.0,13.0,30.30,North,354,0.0,0.0,90,0.00,,,0.00,,2013-01-16 12:03:00,
2013-01-16 06:13:00,15.0,13.0,30.30,North,354,0.0,0.0,90,0.00,,,0.00,,2013-01-16 12:13:00,
2013-01-16 06:22:00,15.0,13.0,30.30,North,354,0.0,0.0,90,0.00,,,0.00,,2013-01-16 12:22:00,
2013-01-16 06:33:00,15.0,13.0,30.31,North,354,0.0,0.0,91,0.00,,,0.00,,2013-01-16 12:33:00,
2013-01-16 06:43:00,15.0,13.0,30.31,North,354,0.0,0.0,91,0.00,,,0.00,,2013-01-16 12:43:00,
2013-01-16 06:53:00,15.0,13.0,30.31,North,354,0.0,0.0,90,0.00,,,0.00,,2013-01-16 12:53:00,
2013-01-16 07:03:00,16.0,14.0,30.32,North,354,0.0,0.0,91,0.00,,,0.00,,2013-01-16 13:03:00,
2013-01-16 07:12:00,16.0,14.0,30.32,North,354,0.0,0.0,91,0.00,,,0.00,,2013-01-16 13:12:00,
2013-01-16 07:22:00,16.0,14.0,30.32,North,354,0.0,0.0,91,0.00,,,0.00,,2013-01-16 13:22:00,
2013-01-16 07:33:00,16.0,14.0,30.32,North,354,0.0,0.0,90,0.00,,,0.00,,2013-01-16 13:33:00,
2013-01-16 07:43:00,16.0,14.0,30.32,North,354,0.0,0.0,90,0.00,,,0.00,,2013-01-16 13:43:00,
2013-01-16 07:52:00,16.0,14.0,30.33,North,354,0.0,0.0,90,0.00,,,0.00,,2013-01-16 13:52:00,
2013-01-16 08:03:00,16.0,14.0,30.33,SSW,193,0.0,1.0,90,0.00,,,0.00,,2013-01-16 14:03:00,
2013-01-16 08:12:00,16.0,14.0,30.33,SSW,193,0.0,1.0,90,0.00,,,0.00,,2013-01-16 14:12:00,
2013-01-16 08:23:00,16.0,13.0,30.33,SSW,193,0.0,0.0,89,0.00,,,0.00,,2013-01-16 14:23:00,
2013-01-16 08:33:00,17.0,14.0,30.34,SW,225,0.0,1.0,89,0.00,,,0.00,,2013-01-16 14:33:00,
2013-01-16 08:43:00,17.0,14.0,30.34,SW,225,0.0,1.0,89,0.00,,,0.00,,2013-01-16 14:43:00,
2013-01-16 08:53:00,18.0,15.0,30.33,SSW,208,0.0,1.0,87,0.00,,,0.00,,2013-01-16 14:53:00,
2013-01-16 09:03:00,20.0,15.0,30.34,SW,226,0.0,2.0,81,0.00,,,0.00,,2013-01-16 15:03:00,
2013-01-16 09:12:00,20.0,15.0,30.34,SW,226,0.0,2.0,81,0.00,,,0.00,,2013-01-16 15:12:00,
2013-01-16 09:23:00,20.0,15.0,30.34,SW,226,0.0,2.0,81,0.00,,,0.00,,2013-01-16 15:23:00,
2013-01-16 09:33:00,23.0,16.0,30.34,WSW,248,0.0,3.0,74,0.00,,,0.00,,2013-01-16 15:33:00,
2013-01-16 09:43:00,23.0,16.0,30.34,WSW,248,0.0,3.0,74,0.00,,,0.00,,2013-01-16 15:43:00,
2013-01-16 09:53:00,25.0,17.0,30.33,WSW,257,0.0,3.0,70,0.00,,,0.00,,2013-01-16 15:53:00,
2013-01-16 10:03:00,27.0,18.0,30.33,SW,221,1.0,3.0,68,0.00,,,0.00,,2013-01-16 16:03:00,
2013-01-16 10:12:00,27.0,18.0,30.33,SW,221,1.0,3.0,68,0.00,,,0.00,,2013-01-16 16:12:00,
2013-01-16 10:22:00,28.0,17.0,30.34,WSW,257,1.0,3.0,64,0.00,,,0.00,,2013-01-16 16:22:00,
2013-01-16 10:33:00,31.0,19.0,30.34,West,271,0.0,3.0,60,0.00,,,0.00,,2013-01-16 16:33:00,
2013-01-16 10:42:00,31.0,19.0,30.34,West,271,0.0,3.0,60,0.00,,,0.00,,2013-01-16 16:42:00,
2013-01-16 10:52:00,32.0,19.0,30.33,WSW,245,1.0,5.0,58,0.00,,,0.00,,2013-01-16 16:52:00,
2013-01-16 11:03:00,34.0,19.0,30.33,WSW,242,2.0,6.0,53,0.00,,,0.00,,2013-01-16 17:03:00,
2013-01-16 11:12:00,34.0,19.0,30.33,WSW,242,2.0,6.0,53,0.00,,,0.00,,2013-01-16 17:12:00,
2013-01-16 11:22:00,36.0,20.0,30.32,SSE,147,0.0,6.0,52,0.00,,,0.00,,2013-01-16 17:22:00,
2013-01-16 11:33:00,37.0,20.0,30.32,West,276,1.0,6.0,49,0.00,,,0.00,,2013-01-16 17:33:00,
2013-01-16 11:43:00,37.0,20.0,30.32,West,276,1.0,6.0,49,0.00,,,0.00,,2013-01-16 17:43:00,
2013-01-16 11:53:00,39.0,20.0,30.30,WSW,257,2.0,4.0,47,0.00,,,0.00,,2013-01-16 17:53:00,
2013-01-16 12:03:00,38.0,20.0,30.29,West,278,1.0,6.0,47,0.00,,,0.00,,2013-01-16 18:03:00,
2013-01-16 12:13:00,38.0,20.0,30.29,West,278,1.0,6.0,47,0.00,,,0.00,,2013-01-16 18:13:00,
2013-01-16 12:23:00,40.0,20.0,30.28,West,263,2.0,5.0,45,0.00,,,0.00,,2013-01-16 18:23:00,
2013-01-16 12:33:00,41.0,21.0,30.27,SW,219,1.0,7.0,44,0.00,,,0.00,,2013-01-16 18:33:00,
2013-01-16 12:42:00,41.0,21.0,30.27,SW,219,1.0,7.0,44,0.00,,,0.00,,2013-01-16 18:42:00,
2013-01-16 12:53:00,42.0,21.0,30.26,WNW,286,1.0,4.0,43,0.00,,,0.00,,2013-01-16 18:53:00,
2013-01-16 13:03:00,42.0,21.0,30.26,WNW,287,0.0,7.0,42,0.00,,,0.00,,2013-01-16 19:03:00,
2013-01-16 13:12:00,42.0,21.0,30.26,WNW,287,0.0,7.0,42,0.00,,,0.00,,2013-01-16 19:12:00,
2013-01-16 13:23:00,42.0,20.0,30.25,NW,315,0.0,5.0,41,0.00,,,0.00,,2013-01-16 19:23:00,
2013-01-16 13:33:00,43.0,20.0,30.24,SW,226,2.0,8.0,39,0.00,,,0.00,,2013-01-16 19:33:00,
2013-01-16 13:43:00,43.0,20.0,30.24,SW,226,2.0,8.0,39,0.00,,,0.00,,2013-01-16 19:43:00,
2013-01-16 13:52:00,43.0,19.0,30.24,WSW,242,2.0,8.0,38,0.00,,,0.00,,2013-01-16 19:52:00,
2013-01-16 14:03:00,44.0,20.0,30.24,WNW,293,1.0,5.0,38,0.00,,,0.00,,2013-01-16 20:03:00,
2013-01-16 14:12:00,44.0,20.0,30.24,WNW,293,1.0,5.0,38,0.00,,,0.00,,2013-01-16 20:12:00,
2013-01-16 14:23:00,44.0,19.0,30.23,SW,224,1.0,6.0,37,0.00,,,0.00,,2013-01-16 20:23:00,
2013-01-16 14:33:00,45.0,19.0,30.22,WSW,256,2.0,5.0,35,0.00,,,0.00,,2013-01-16 20:33:00,
2013-01-16 14:42:00,45.0,19.0,30.22,WSW,256,2.0,5.0,35,0.00,,,0.00,,2013-01-16 20:42:00,
2013-01-16 14:53:00,46.0,19.0,30.22,SSW,210,1.0,6.0,34,0.00,,,0.00,,2013-01-16 20:53:00,
2013-01-16 15:03:00,46.0,19.0,30.22,WNW,288,1.0,4.0,33,0.00,,,0.00,,2013-01-16 21:03:00,
2013-01-16 15:12:00,46.0,19.0,30.22,WNW,288,1.0,4.0,33,0.00,,,0.00,,2013-01-16 21:12:00,
2013-01-16 15:22:00,46.0,19.0,30.22,WNW,288,1.0,4.0,33,0.00,,,0.00,,2013-01-16 21:22:00,
2013-01-16 15:33:00,47.0,19.0,30.22,West,277,0.0,3.0,33,0.00,,,0.00,,2013-01-16 21:33:00,
2013-01-16 15:43:00,47.0,19.0,30.22,West,277,0.0,3.0,33,0.00,,,0.00,,2013-01-16 21:43:00,
2013-01-16 15:53:00,47.0,19.0,30.22,WSW,245,1.0,4.0,33,0.00,,,0.00,,2013-01-16 21:53:00,
2013-01-16 16:02:00,47.0,19.0,30.22,West,263,1.0,3.0,33,0.00,,,0.00,,2013-01-16 22:02:00,
2013-01-16 16:12:00,47.0,19.0,30.22,West,263,1.0,3.0,33,0.00,,,0.00,,2013-01-16 22:12:00,
2013-01-16 16:22:00,47.0,19.0,30.22,WNW,294,1.0,3.0,33,0.00,,,0.00,,2013-01-16 22:22:00,
2013-01-16 16:33:00,47.0,19.0,30.23,West,277,0.0,2.0,33,0.00,,,0.00,,2013-01-16 22:33:00,
2013-01-16 16:43:00,47.0,19.0,30.23,West,277,0.0,2.0,33,0.00,,,0.00,,2013-01-16 22:43:00,
2013-01-16 16:52:00,47.0,22.0,30.23,West,263,0.0,3.0,37,0.00,,,0.00,,2013-01-16 22:52:00,
2013-01-16 17:03:00,46.0,21.0,30.23,WSW,243,0.0,1.0,36,0.00,,,0.00,,2013-01-16 23:03:00,
2013-01-16 17:12:00,46.0,21.0,30.23,WSW,243,0.0,1.0,36,0.00,,,0.00,,2013-01-16 23:12:00,
2013-01-16 17:23:00,46.0,21.0,30.23,SW,225,0.0,1.0,36,0.00,,,0.00,,2013-01-16 23:23:00,
2013-01-16 17:32:00,45.0,20.0,30.24,West,264,0.0,0.0,37,0.00,,,0.00,,2013-01-16 23:32:00,
2013-01-16 17:42:00,45.0,20.0,30.24,West,264,0.0,0.0,37,0.00,,,0.00,,2013-01-16 23:42:00,
2013-01-16 17:52:00,44.0,21.0,30.23,West,264,0.0,0.0,40,0.00,,,0.00,,2013-01-16 23:52:00,
2013-01-16 18:02:00,42.0,20.0,30.24,West,264,0.0,0.0,41,0.00,,,0.00,,2013-01-17 00:02:00,
2013-01-16 18:12:00,42.0,20.0,30.24,West,264,0.0,0.0,41,0.00,,,0.00,,2013-01-17 00:12:00,
2013-01-16 18:22:00,41.0,20.0,30.24,West,264,0.0,0.0,42,0.00,,,0.00,,2013-01-17 00:22:00,
2013-01-16 18:32:00,39.0,19.0,30.24,West,264,0.0,0.0,45,0.00,,,0.00,,2013-01-17 00:32:00,
2013-01-16 18:42:00,39.0,19.0,30.24,West,264,0.0,0.0,45,0.00,,,0.00,,2013-01-17 00:42:00,
2013-01-16 18:52:00,39.0,20.0,30.25,West,264,0.0,0.0,46,0.00,,,0.00,,2013-01-17 00:52:00,
2013-01-16 19:02:00,37.0,20.0,30.25,West,264,0.0,0.0,50,0.00,,,0.00,,2013-01-17 01:02:00,
2013-01-16 19:12:00,37.0,20.0,30.25,West,264,0.0,0.0,50,0.00,,,0.00,,2013-01-17 01:12:00,
2013-01-16 19:22:00,37.0,21.0,30.25,West,264,0.0,0.0,51,0.00,,,0.00,,2013-01-17 01:22:00,
2013-01-16 19:33:00,36.0,21.0,30.26,West,264,0.0,0.0,53,0.00,,,0.00,,2013-01-17 01:33:00,
2013-01-16 19:42:00,36.0,21.0,30.26,West,264,0.0,0.0,53,0.00,,,0.00,,2013-01-17 01:42:00,
2013-01-16 19:52:00,35.0,21.0,30.26,West,264,0.0,0.0,56,0.00,,,0.00,,2013-01-17 01:52:00,
2013-01-16 20:02:00,35.0,22.0,30.27,West,264,0.0,0.0,58,0.00,,,0.00,,2013-01-17 02:02:00,
2013-01-16 20:12:00,35.0,22.0,30.27,West,264,0.0,0.0,58,0.00,,,0.00,,2013-01-17 02:12:00,
2013-01-16 20:22:00,34.0,21.0,30.27,West,264,0.0,0.0,59,0.00,,,0.00,,2013-01-17 02:22:00,
2013-01-16 20:32:00,34.0,22.0,30.27,West,264,0.0,0.0,61,0.00,,,0.00,,2013-01-17 02:32:00,
2013-01-16 20:42:00,34.0,22.0,30.27,West,264,0.0,0.0,61,0.00,,,0.00,,2013-01-17 02:42:00,
2013-01-16 20:52:00,34.0,22.0,30.27,West,264,0.0,0.0,61,0.00,,,0.00,,2013-01-17 02:52:00,
2013-01-16 21:03:00,33.0,22.0,30.27,West,264,0.0,0.0,64,0.00,,,0.00,,2013-01-17 03:03:00,
2013-01-16 21:12:00,33.0,22.0,30.27,West,264,0.0,0.0,64,0.00,,,0.00,,2013-01-17 03:12:00,
2013-01-16 21:22:00,32.0,22.0,30.28,West,264,0.0,0.0,66,0.00,,,0.00,,2013-01-17 03:22:00,
2013-01-16 21:32:00,31.0,21.0,30.28,West,264,0.0,0.0,67,0.00,,,0.00,,2013-01-17 03:32:00,
2013-01-16 21:42:00,31.0,21.0,30.28,West,264,0.0,0.0,67,0.00,,,0.00,,2013-01-17 03:42:00,
2013-01-16 21:52:00,30.0,21.0,30.28,West,264,0.0,0.0,69,0.00,,,0.00,,2013-01-17 03:52:00,
2013-01-16 22:02:00,29.0,21.0,30.28,West,264,0.0,0.0,71,0.00,,,0.00,,2013-01-17 04:02:00,
2013-01-16 22:12:00,29.0,21.0,30.28,West,264,0.0,0.0,72,0.00,,,0.00,,2013-01-17 04:12:00,
2013-01-16 22:22:00,29.0,21.0,30.28,West,264,0.0,0.0,72,0.00,,,0.00,,2013-01-17 04:22:00,
2013-01-16 22:32:00,29.0,21.0,30.28,West,264,0.0,0.0,72,0.00,,,0.00,,2013-01-17 04:32:00,
2013-01-16 22:42:00,29.0,21.0,30.28,West,264,0.0,0.0,72,0.00,,,0.00,,2013-01-17 04:42:00,
2013-01-16 22:52:00,29.0,21.0,30.28,West,264,0.0,0.0,73,0.00,,,0.00,,2013-01-17 04:52:00,
2013-01-16 23:04:00,29.0,21.0,30.29,West,264,0.0,0.0,73,0.00,,,0.00,,2013-01-17 05:04:00,
2013-01-16 23:12:00,29.0,21.0,30.29,West,264,0.0,0.0,73,0.00,,,0.00,,2013-01-17 05:12:00,
2013-01-16 23:22:00,28.0,21.0,30.29,West,264,0.0,0.0,75,0.00,,,0.00,,2013-01-17 05:22:00,
2013-01-16 23:33:00,28.0,22.0,30.30,West,264,0.0,0.0,77,0.00,,,0.00,,2013-01-17 05:33:00,
2013-01-16 23:42:00,28.0,22.0,30.30,West,264,0.0,0.0,77,0.00,,,0.00,,2013-01-17 05:42:00,
2013-01-16 23:52:00,28.0,22.0,30.30,West,264,0.0,0.0,77,0.00,,,0.00,,2013-01-17 05:52:00,